STARLINK-33898

Satellite information

Favourite Embed

Satellite Type and Status

PAYLOADIN ORBIT

Key statistics

Satellite STARLINK-33898 at a glance.

Uptime

213

Days in orbit

Revolutions

≈ 15.3

Per day

Orbit

LEO

Low Earth Orbit

Inclination

43.0

Latest

Satellite identification and parameters

Extended collection of information and parameters for STARLINK-33898.

Object identification

Identified? True

Debris? False

Object name: STARLINK-33898

International designator: 2025-101J

Object number (NORAD): 64002

Object ID (CCSDS): 64002

Country: UNITED STATES OF AMERICA (US)

Current information (Y/N): Y

RCS size: LARGE

Orbital parameters

Period: 94.269 minutes

Inclination: 43.0002 deg

SMA: 6861.298 km

Apoapsis: 484.376 km

Periapsis: 481.95 km

RAAN: 134.878 deg

Eccentricy: 0.0001768

Argument of periapsis: 263.1451 deg

Mean anomaly: 96.92 deg

Mean motion: 15.27542647 rev/day

Mean motion (dot): 0.00034275 rev/day2

B* drag term: 0.0012506655 1/REarth

Two-line elements (TLE)

Creation date: Dec. 12, 2025, 3:16 a.m.

Reference frame: TEME

Reference center: EARTH

Epoch: Dec. 11, 2025, 6:14 p.m. UTC

TLE line 0: 0 STARLINK-33898

TLE line 1: 1 64002U 25101J 25345.76001122 .00034275 00000-0 12507-2 0 9997

TLE line 2: 2 64002 43.0002 134.8780 0001768 263.1451 96.9200 15.27542647 33609

Live tracking on map

Real-time ground track for satellite STARLINK-33898.

In-orbit conjunctions

There are no conjunctions computed for STARLINK-33898, at the moment. Check back to stay up to date, as we update our databases every day.

Go to all conjunctions

Associated space launch

A batch of 28 satellites for the Starlink mega-constellation - SpaceX's project for space-based Internet communication system.

STARLINK-33898 was lifted into orbit during the mission ‘Falcon 9 Block 5 | Starlink Group 6-67’, on board a Falcon 9 space rocket.

The launch took place on May 14, 2025, 4:38 p.m. from Space Launch Complex 40.

For more information about the launch, click the button.

Launch to space Falcon 9 Block 5 | Starlink Group 6-67
Falcon 9 Block 5 | Starlink Group 6-67

Agency: SpaceX

Status: Launch Successful

Launch date: May 14, 2025, 4:38 p.m. UTC

Rocket: Falcon 9

Launch pad: Space Launch Complex 40

Location: Cape Canaveral SFS, FL, USA

...

Latest news about this satellite

News about space launch
Live coverage: SpaceX to launch 28 Starlink V2 Mini satellites on Falcon 9 rocket from Cape Canaveral

The Starlink 6-67 mission will fly on a south-easterly trajectory once it departs from pad 40 at Cape Canaveral Space Force Station. Liftoff is targeting 12:38 p.m. EDT (1638 UTC) on May 14.

News about space launch
Launch Roundup: Orbital launches from five countries planned

On the heels of a busy April, activity is ramping up for May with launches… The post Launch Roundup: Orbital launches from five countries planned appeared first on NASASpaceFlight.com.


Newsletter sign-up

Weekly statistics, charts and insights to help you stay on top of the space industry.